Location: ????????
(55.6333°N, 37.7000°E)
Time: 03:26:39
(UTC+00:00)

Cosmos 2360 Rocket - Pass Details

Date: 19 May 2025
Orbit: 834 x 842 km, 71.0° (Epoch: 14 June)

Event Time Altitude Azimuth Distance (km) Brightness Sun altitude
Rises 23:11:05 0° 315° (NW) 3,394 5.6 -11.1°
Reaches altitude 10° 23:15:28 10° 283° (WNW) 2,453 4.5 -10.9°
Maximum altitude 23:17:05 11° 266° (W) 2,361 4.2 -10.8°
Drops below altitude 10° 23:18:43 10° 249° (WSW) 2,448 4.2 -10.7°
Enters shadow 23:19:39 - 240° (WSW) 2,577 4.2 -10.6°
